Location: Newark
(31.5350°N, 35.0986°E)
Time: 00:05:54
(UTC+00:00)

Vanguard 1 - Pass Details

Date: 23 September 2019
Orbit: 653 x 3830 km, 34.3° (Epoch: 14 October)

Event Time Altitude Azimuth Distance (km) Brightness Sun altitude
Rises 23:02:15 0° 246° (WSW) 7,297 - -52.1°
Reaches altitude 10° 23:06:43 10° 246° (WSW) 6,527 - -51.5°
Exits shadow 23:28:44 83° 220° (SW) 3,803 12.6 -48.3°
Maximum altitude 23:30:07 86° 161° (SSE) 3,765 12.6 -48.1°
Drops below altitude 10° 23:50:08 10° 75° (ENE) 5,734 14.5 -44.8°
Sets 23:53:45 0° 76° (ENE) 6,423 14.9 -44.2°
